Cloud_Cover
5 4 2 2 0 0 1 46 63 5 3 5 0 0 0 4 5 69 47 53 14 7 24 5 5 1 0 0 0 0 0 2 5 7 97 4 18 97 100 86 98 99 14 49 91 100 100 95 91
5 5 2 2 3 0 0 0 0 0 0 2 4 1 0 0 1 3 15 29 29 30 27 5 5 4 0 0 0 0 0 0 1 3 6 6 5 13 100 100 100 70 64 96 100 100 77 100 82
4 5 1 2 5 0 0 0 0 0 0 0 0 0 0 0 5 0 5 9 41 54 36 5 4 4 0 0 0 0 0 0 0 5 88 6 5 9 38 100 100 65 86 100 100 100 100 100 90
5 5 5 0 0 0 0 0 0 0 0 0 0 0 0 0 5 5 2 12 34 71 17 100 5 2 0 0 0 0 0 7 0 0 51 89 0 5 5 100 100 100 100 100 100 63 98 72 0
4 5 5 5 1 0 0 0 0 0 0 0 0 0 0 0 0 1 20 10 49 91 27 100 6 3 0 0 0 0 0 0 0 0 32 100 2 0 0 54 98 99 100 67 100 9 4 0 4
5 3 4 0 0 0 0 0 0 0 0 0 0 0 0 0 0 33 35 14 31 98 38 22 44 5 5 3 0 0 0 0 0 0 24 76 89 14 35 72 21 14 81 7 23 0 0 0 2
0 0 0 0 0 0 0 0 0 0 0 0 0 0 0 0 0 14 17 16 37 51 51 40 33 16 10 5 5 1 0 0 0 0 74 0 84 93 100 29 0 66 4 17 6 0 0 0 0
0 0 0 0 0 0 0 0 0 0 0 0 0 0 0 0 0 4 18 31 47 62 56 54 43 24 55 9 5 3 5 2 5 2 0 0 27 100 100 4 0 0 0 3 5 0 0 0 0
5 5 5 0 0 0 0 0 0 0 0 0 0 0 0 0 27 39 56 71 83 94 96 61 53 36 61 86 80 11 5 5 5 3 5 0 0 55 100 12 0 0 0 0 0 0 0 0 0
5 5 5 5 0 0 0 0 0 0 0 0 0 0 0 0 16 13 36 24 100 100 100 92 89 47 31 32 64 5 5 5 5 5 6 5 4 5 5 32 2 0 51 4 0 1 0 0 0
5 5 5 5 0 0 0 0 0 0 0 0 0 0 0 0 0 0 0 0 0 10 53 69 100 99 51 41 68 51 11 6 5 45 66 1 3 5 5 5 36 17 45 4 5 5 5 4 5
7 5 5 5 5 0 5 1 0 0 0 0 0 0 0 0 0 0 0 0 0 0 0 0 63 100 94 55 53 86 100 98 90 99 99 5 6 9 19 5 5 6 54 6 7 29 49 11 5
20 5 6 72 86 18 3 0 0 0 0 0 0 0 0 0 0 0 0 0 0 0 0 0 3 55 91 100 100 88 57 93 99 94 99 92 9 76 24 36 26 5 5 63 55 6 5 8 39
98 80 59 18 80 100 74 8 4 0 0 0 0 0 0 0 0 0 0 0 0 0 0 0 0 0 36 77 97 100 100 65 79 100 100 100 100 100 83 54 17 21 65 61 54 44 44 6 10
100 38 100 100 53 40 91 100 98 5 4 0 0 0 0 0 0 0 0 0 0 0 0 0 0 0 19 31 51 69 90 72 90 96 100 100 100 100 100 100 100 99 72 100 95 87 61 62 89
100 100 71 93 99 77 29 100 69 5 5 4 5 5 1 0 0 0 0 0 0 0 0 0 0 0 0 3 18 51 92 75 79 80 100 46 5 61 100 100 100 100 100 100 100 99 82 58 30
100 100 100 99 59 90 8 96 67 5 5 5 15 6 1 0 0 0 0 0 0 0 0 0 0 0 0 0 13 42 57 100 100 100 100 100 36 6 7 86 100 100 100 100 100 99 98 100 100
100 100 100 100 90 6 70 98 100 14 0 5 5 5 5 5 5 0 0 5 5 0 0 0 0 0 0 0 4 40 92 100 100 100 100 100 93 43 32 22 10 52 83 93 88 100 100 97 54
100 100 100 100 100 100 100 94 100 88 10 12 5 5 5 5 1 2 0 0 0 0 0 0 0 0 0 0 12 67 97 98 100 100 100 100 100 64 39 25 43 62 55 63 91 68 98 100 100
100 93 98 100 100 86 100 100 100 100 100 90 32 5 5 2 3 4 0 0 0 0 0 0 0 0 0 0 0 0 0 2 16 75 95 100 100 79 55 46 56 71 83 60 40 65 63 100 100
100 27 100 100 100 93 24 9 13 73 99 100 5 7 5 5 5 5 3 0 0 0 0 0 0 0 0 0 0 0 0 2 3 47 72 70 96 100 87 46 61 62 91 71 92 96 89 85 97
100 100 100 100 84 73 12 29 8 91 99 97 58 17 9 5 5 3 0 0 0 0 0 0 0 0 0 0 0 0 0 8 0 0 1 3 19 74 100 94 75 99 86 100 100 100 86 90 94
100 100 82 36 58 100 100 91 100 100 100 100 100 89 6 25 3 0 0 0 0 5 5 1 0 0 0 0 0 0 0 0 0 0 0 0 0 1 30 68 65 76 100 100 100 99 99 100 100
100 100 100 100 100 87 98 79 98 87 95 100 100 97 45 5 4 0 0 0 0 3 4 5 5 5 1 0 24 76 100 77 78 28 32 51 63 30 4 3 39 68 82 98 100 70 100 100 100
100 100 100 100 100 25 39 30 53 41 55 78 100 100 91 41 5 5 3 3 5 1 0 0 0 0 0 0 0 0 5 41 99 97 73 51 100 97 13 17 77 75 97 100 100 100 98 100 100
100 100 88 86 52 26 6 47 79 70 32 100 98 8 5 5 3 0 0 0 0 0 0 0 0 0 0 0 0 0 0 5 5 22 79 98 100 96 72 98 47 100 100 100 74 98 100 100 100
100 96 100 100 27 12 3 3 4 29 94 99 8 9 95 5 0 0 0 0 0 0 0 0 0 0 0 0 0 0 0 0 7 90 96 97 85 24 88 100 79 99 100 86 41 94 100 100 100
100 100 100 92 100 100 5 5 19 16 100 61 66 8 5 5 0 0 0 0 0 3 2 2 2 5 5 5 5 1 2 0 1 5 0 0 5 10 60 16 36 98 84 72 82 100 99 100 100
100 100 100 100 94 36 6 0 46 91 91 96 15 5 1 0 0 0 0 0 3 5 5 45 32 5 5 5 5 5 4 3 0 1 0 1 13 75 97 93 77 9 66 100 100 100 100 100 100
98 47 98 57 72 60 17 0 57 100 81 66 5 5 4 5 3 1 5 93 42 5 1 5 6 8 5 5 5 34 5 5 5 8 5 5 5 47 100 100 100 100 100 93 100 100 100 100 100